CDT,Max TemperatureF,Mean TemperatureF,Min TemperatureF,Max Dew PointF,MeanDew PointF,Min DewpointF,Max Humidity, Mean Humidity, Min Humidity, Max Sea Level PressureIn, Mean Sea Level PressureIn, Min Sea Level PressureIn, Max VisibilityMiles, Mean VisibilityMiles, Min VisibilityMiles, Max Wind SpeedMPH, Mean Wind SpeedMPH, Max Gust SpeedMPH,PrecipitationIn, CloudCover, Events, WindDirDegrees
2013-10-1,89,72,57,70,60,55,100,86,38,29.94,29.88,29.85,10,8,0,12,1,17,0.00,1,Fog,137
2013-10-2,87,78,70,71,70,68,100,81,55,29.99,29.92,29.85,10,7,4,14,5,18,0.00,3,,133
2013-10-3,89,80,80,72,70,68,74,62,49,29.91,29.87,29.78,10,10,10,17,8,23,0.00,3,,161
2013-10-4,87,76,75,70,69,66,83,69,49,29.90,29.85,29.81,10,10,10,16,9,24,0.00,0,,155
2013-10-5,69,59,49,62,52,43,100,84,59,30.12,29.96,29.85,10,10,7,22,9,36,0.02,5,Rain-Thunderstorm,9
2013-10-6,71,55,39,49,43,37,100,89,29,30.13,30.08,30.06,10,8,1,15,1,23,0.00,0,,332
2013-10-7,78,58,39,45,41,36,100,86,21,30.14,30.10,30.08,10,9,5,6,0,,0.00,0,,50
2013-10-8,81,60,41,54,45,41,100,88,30,30.12,30.08,30.01,10,10,2,7,1,,0.00,0,,123
2013-10-9,83,66,50,55,52,50,100,78,35,30.07,30.02,29.97,10,10,10,10,4,16,0.00,0,,124
2013-10-10,84,68,53,63,56,52,100,85,45,30.06,30.00,29.86,10,10,7,13,2,17,0.00,0,,125
2013-10-11,86,74,63,70,64,58,94,85,62,29.90,29.87,29.80,10,10,10,10,5,18,0.00,1,,134
2013-10-12,86,76,66,72,68,64,100,90,55,30.10,29.92,29.86,10,9,2,13,3,36,0.44,4,Rain-Thunderstorm,90
2013-10-13,74,68,62,72,65,62,100,96,88,30.23,30.15,30.10,10,8,2,8,2,,0.00,5,,41
2013-10-14,72,69,66,70,67,66,100,93,89,30.16,30.07,29.92,10,9,2,12,6,16,0.00,7,Rain,131
2013-10-15,72,63,54,71,66,52,98,95,88,30.09,29.95,29.90,10,9,5,9,6,17,0.05,8,Rain,173
2013-10-16,66,58,48,55,48,44,99,78,46,30.15,30.08,30.04,10,10,7,16,5,23,0.05,5,Rain,359
2013-10-17,72,55,39,54,45,39,100,88,43,30.12,30.06,29.97,10,9,2,7,2,,0.00,0,,262
2013-10-18,70,58,45,55,50,43,100,92,46,30.17,30.01,29.92,10,10,7,14,1,21,0.00,3,,126
2013-10-19,68,50,33,42,38,34,100,90,35,30.21,30.16,30.07,10,10,3,15,9,21,0.00,3,,332
2013-10-20,73,53,35,48,40,36,100,90,35,30.07,30.02,29.90,10,8,2,15,1,21,0.00,0,,140
2013-10-21,61,52,43,54,48,40,94,84,72,30.14,29.97,29.90,10,10,10,13,4,18,0.00,1,,77
2013-10-22,77,50,33,52,40,34,100,95,56,30.16,30.12,30.01,10,8,0,5,0,,0.00,0,Fog,240
2013-10-23,79,59,41,54,46,41,100,92,44,30.15,30.09,30.01,10,9,3,8,1,,0.00,0,,122
2013-10-24,69,58,48,49,46,37,99,75,38,30.34,30.16,30.03,10,10,7,16,4,21,0.00,0,,25
2013-10-25,66,53,44,45,38,36,80,68,48,30.45,30.36,30.26,10,10,10,15,7,,0.00,0,,67
2013-10-26,63,54,48,59,48,44,100,85,77,30.25,30.20,30.11,10,9,4,8,4,,0.00,3,Rain-Thunderstorm,118
2013-10-27,68,59,51,59,57,51,100,98,73,30.13,30.09,30.03,10,4,0,6,1,,0.00,8,Fog,1
2013-10-28,69,60,50,66,55,50,100,98,83,30.11,30.05,30.01,10,3,0,9,1,,0.00,8,Fog,116
2013-10-29,77,72,68,70,67,66,95,89,78,30.06,30.03,29.96,10,10,10,21,10,25,0.00,8,,149
2013-10-30,72,68,65,70,68,64,100,92,87,30.00,29.93,29.78,10,10,5,15,9,26,0.00,8,Rain,157
2013-10-31,69,57,45,68,59,45,100,87,40,29.86,29.73,29.65,10,7,1,25,7,33,0.02,5,Rain,200